[[{"header":{"parameterUnit":"m.s-1","parameterCategory":2,"la1":30.2991,"la2":30.254,"lo1":-89.0895,"lo2":-89.0444,"dy":0.0017,"dx":0.0017,"nx":28,"ny":28,"refTime":"2025-04-05T09:00:00:Z","depth":"0","parameterNumber":2,"parameterNumberName":"U-component_of_CURRENTS"},"data":[0,0,0,0,0,0,0,0,0,0,0,0,0,0,0,0,0,0,0,0,0,0,0,0,0,0,0,0,0,0,0,0,0,0,0,0,0,0,0,0,0,0,0,0,0,0,0,0,0,0,0,0,0,0,0,0,0,0,0.2529,0.2529,0,0.2553,0.2554,0.2554,0.2551,0.255,0.255,0.255,0.2562,0.2562,0.2563,0,0,0,0,0,0,0,0,0,0,0,0,0,0.2499,0.2499,0.2529,0.2529,0.2529,0.2553,0.2554,0.2554,0.2551,0.255,0.255,0.255,0.2561,0.2562,0.2563,0,0,0,0,0,0,0,0,0,0,0,0,0,0.2515,0.2499,0.2528,0.2532,0.2532,0.2553,0.2554,0.2554,0.2551,0.255,0.255,0.255,0.2561,0.2562,0.2563,0.2576,0,0,0.2565,0.2566,0,0,0,0,0,0,0,0,0.2514,0.2516,0.2531,0.2532,0.2532,0.255,0.2548,0.2561,0.2551,0.2542,0.255,0.2549,0.2558,0.2559,0.2562,0.2577,0.2577,0.2565,0.2566,0.2566,0.2567,0,0,0,0,0,0,0,0.2513,0.2515,0.2537,0.2531,0.2532,0.2539,0.2541,0.255,0.255,0.2543,0.2543,0.2548,0.2558,0.2562,0.2563,0.2577,0.2565,0.2566,0.2567,0.2567,0.2628,0.2629,0,0,0,0,0,0,0.2512,0.2514,0.2536,0.2538,0.2524,0.254,0.2542,0.2543,0.2551,0.2552,0.2549,0.2548,0.256,0.2562,0.2563,0.2595,0.2566,0.2567,0.2568,0.2627,0.2629,0.263,0,0,0,0,0,0,0.2511,0.2514,0.2535,0.2528,0.2531,0.2541,0.2543,0.2544,0.255,0.2556,0.2556,0.2554,0.256,0.2562,0.258,0.2595,0.2568,0.2568,0.2626,0.2628,0.2629,0.2649,0,0,0,0,0,0,0.251,0.2513,0.2515,0.2528,0.2532,0.2551,0.2544,0.2545,0.2555,0.2554,0.2561,0.2561,0.256,0.2579,0.2581,0.2596,0.2569,0.2624,0.2627,0.2629,0.2647,0.2652,0.2655,0,0,0,0,0,0.2509,0.2513,0.2515,0.2518,0.2533,0.2552,0.2554,0.2559,0.2556,0.2562,0.2569,0.2561,0.2593,0.258,0.2582,0.2598,0.2623,0.2626,0.2628,0.2646,0.2651,0.2655,0,0,0,0,0,0,0.2501,0.2514,0.2516,0.2523,0.2538,0.2552,0.256,0.2563,0.2573,0.2573,0.2573,0.2575,0.2599,0.2598,0.2583,0.2624,0.2608,0.2611,0.2621,0.2625,0.2629,0.2629,0.257,0,0,0,0,0,0.25,0.2506,0.2522,0.2529,0.2538,0.255,0.2558,0.2563,0.2574,0.2578,0.2583,0.2593,0.2611,0.2617,0.263,0.2649,0.2659,0.2663,0.2667,0.267,0.2673,0.271,0.2718,0.2638,0.2638,0.2638,0,0,0.2499,0.2508,0.251,0.2528,0.2539,0.2558,0.2553,0.257,0.2584,0.2579,0.2597,0.2608,0.2621,0.2645,0.2655,0.2644,0.2697,0.2673,0.2675,0.2677,0.2714,0.2721,0.2728,0.264,0.2639,0.2639,0,0,0.2503,0.2508,0.2517,0.2532,0.2553,0.2565,0.2571,0.2588,0.2594,0.2617,0.2621,0.2642,0.2661,0.2675,0.2685,0.272,0.272,0.2724,0.274,0.2776,0.2783,0.2789,0.2807,0.2815,0.2723,0.2723,0.2723,0,0.2502,0.2512,0.2523,0.254,0.2552,0.2569,0.2584,0.26,0.262,0.2633,0.2626,0.2673,0.2678,0.2716,0.2725,0.2729,0.2743,0.2718,0.2781,0.2787,0.2793,0.281,0.2818,0.2724,0.2724,0.2724,0.2724,0,0.2514,0.2526,0.2535,0.256,0.2575,0.2592,0.2616,0.2634,0.2645,0.2663,0.27,0.2712,0.2741,0.2747,0.2744,0.279,0.2784,0.2783,0.2766,0.2802,0.2818,0.2826,0.2726,0.2726,0.2725,0.2725,0,0,0.2501,0.2536,0.2538,0.2549,0.2585,0.2596,0.263,0.2663,0.2687,0.2713,0.2743,0.2775,0.2785,0.2797,0.2801,0.2825,0.2871,0.2818,0.282,0.2831,0.2944,0.2933,0.294,0.2883,0.2884,0.2886,0.2936,0,0.2508,0.2532,0.255,0.2576,0.259,0.2619,0.2647,0.2681,0.271,0.2746,0.2775,0.2805,0.2805,0.2814,0.2845,0.2867,0.2894,0.2857,0.2912,0.2913,0.2895,0.295,0.2901,0.2942,0.2944,0.2945,0.2946,0,0.2509,0.2526,0.2545,0.2579,0.2588,0.2605,0.2649,0.2679,0.2742,0.2766,0.2814,0.2835,0.2882,0.2868,0.294,0.2917,0.2935,0.2946,0.2949,0.2938,0.2918,0.2908,0.2956,0.2873,0.2958,0.2957,0.2957,0,0.248,0.2518,0.2528,0.254,0.2586,0.2598,0.2625,0.2683,0.2712,0.2778,0.2808,0.2871,0.2902,0.2944,0.298,0.2963,0.3051,0.3032,0.304,0.3038,0.3007,0.3,0.2976,0.3085,0.3085,0.3085,0.3084,0,0.2471,0.2479,0.2513,0.2519,0.2537,0.2574,0.2604,0.2647,0.2709,0.2749,0.2813,0.2855,0.2924,0.2981,0.3002,0.3056,0.3079,0.3057,0.3061,0.3012,0.3005,0.2938,0.2863,0.3086,0.3086,0.3086,0.3085,0,0.2433,0.2457,0.2471,0.2511,0.2521,0.2532,0.2583,0.2607,0.2677,0.2731,0.2751,0.2856,0.2937,0.3,0.3073,0.3086,0.3021,0.3137,0.3066,0.3062,0.2977,0.2904,0.2627,0.2578,0.3152,0.3152,0.3152,0,0.2415,0.2418,0.2451,0.2452,0.2466,0.249,0.2507,0.2579,0.2607,0.2727,0.2746,0.2853,0.2921,0.3041,0.3086,0.3141,0.301,0.3121,0.308,0.2978,0.2901,0.263,0.2591,0.3043,0.3042,0.3041,0.3041,0,0.2384,0.2393,0.2404,0.2409,0.2416,0.2427,0.2456,0.2477,0.2566,0.2621,0.2701,0.2768,0.2913,0.2973,0.3071,0.3094,0.2931,0.3109,0.303,0.2838,0.2514,0.2469,0.2988,0.3035,0.3036,0.3036,0.3036,0.3037,0.2356,0.2352,0.2362,0.2358,0.2362,0.235,0.2336,0.2382,0.2422,0.249,0.2608,0.2693,0.2873,0.3008,0.2998,0.2984,0.2859,0.2935,0.2864,0.2603,0.2515,0.3014,0.305,0.3051,0.3051,0.3052,0.3052,0,0.232,0.2315,0.231,0.2293,0.2263,0.2287,0.2288,0.2264,0.2278,0.24,0.2468,0.2647,0.2739,0.2848,0.2921,0.2795,0.2588,0.2688,0.2328,0.2322,0.2828,0.2792,0.2742,0.2742,0.2742,0.2742,0.2743,0.2743,0.2301,0.228,0.2272,0.2202,0.218,0.2109,0.209,0.2077,0.2135,0.2213,0.2314,0.2433,0.2627,0.2704,0.2641,0.2567,0.2282,0.2069,0.2042,0.2459,0.2477,0.2493,0.2445,0.2323,0.2322,0.1462,0.1455,0.145]},{"header":{"parameterUnit":"m.s-1","parameterCategory":2,"la1":30.2991,"la2":30.254,"lo1":-89.0895,"lo2":-89.0444,"dy":0.0017,"dx":0.0017,"nx":28,"ny":28,"refTime":"2025-04-05T09:00:00:Z","depth":"0","parameterNumber":3,"parameterNumberName":"V-component_of_CURRENTS"},"data":[0,0,0,0,0,0,0,0,0,0,0,0,0,0,0,0,0,0,0,0,0,0,0,0,0,0,0,0,0,0,0,0,0,0,0,0,0,0,0,0,0,0,0,0,0,0,0,0,0,0,0,0,0,0,0,0,0,0,0.0389,0.0389,0,0.036,0.036,0.0359,0.0333,0.0332,0.0332,0.0332,0.0271,0.0269,0.0268,0,0,0,0,0,0,0,0,0,0,0,0,0,0.0381,0.0381,0.0389,0.0389,0.0389,0.036,0.036,0.0359,0.0333,0.0332,0.0332,0.0332,0.0271,0.0269,0.0268,0,0,0,0,0,0,0,0,0,0,0,0,0,0.037,0.0381,0.0389,0.0373,0.0372,0.0361,0.036,0.0359,0.0333,0.0332,0.0332,0.0332,0.0272,0.027,0.0267,0.0259,0,0,0.0261,0.026,0,0,0,0,0,0,0,0,0.0371,0.037,0.0376,0.0374,0.0373,0.0351,0.0334,0.0325,0.0333,0.0346,0.0332,0.0332,0.0296,0.0292,0.0285,0.0256,0.0254,0.026,0.0259,0.0258,0.0258,0,0,0,0,0,0,0,0.0371,0.0371,0.0376,0.0376,0.0374,0.0354,0.0352,0.0332,0.0321,0.0345,0.0343,0.0342,0.0294,0.0287,0.0283,0.0253,0.0261,0.0259,0.0257,0.0256,0.0219,0.0219,0,0,0,0,0,0,0.0381,0.0372,0.0377,0.0375,0.0373,0.0354,0.0352,0.0357,0.0322,0.0317,0.0343,0.0341,0.0291,0.0286,0.0281,0.0286,0.0258,0.0256,0.0255,0.0219,0.0219,0.0219,0,0,0,0,0,0,0.0381,0.0382,0.0378,0.0374,0.0372,0.0355,0.036,0.0357,0.0352,0.0321,0.0315,0.0342,0.0291,0.0284,0.0272,0.0282,0.0255,0.0253,0.0218,0.0219,0.0219,0.0285,0,0,0,0,0,0,0.0381,0.0382,0.0386,0.0375,0.0373,0.038,0.0361,0.0356,0.0353,0.0351,0.0319,0.0313,0.029,0.0276,0.027,0.0279,0.0251,0.0218,0.0218,0.0219,0.0282,0.0287,0.0292,0,0,0,0,0,0.0381,0.0392,0.0387,0.0387,0.038,0.0381,0.0378,0.0363,0.0353,0.0357,0.0336,0.0314,0.0275,0.0275,0.0268,0.0276,0.0218,0.0218,0.0219,0.028,0.0286,0.0292,0,0,0,0,0,0,0.039,0.039,0.0384,0.0394,0.0391,0.0377,0.0379,0.0368,0.0355,0.035,0.032,0.0313,0.0305,0.0281,0.0281,0.0266,0.0242,0.0241,0.029,0.0296,0.0301,0.0317,0.025,0,0,0,0,0,0.0395,0.0403,0.0399,0.0406,0.0407,0.0393,0.039,0.0382,0.037,0.0363,0.0343,0.0319,0.0302,0.0293,0.0272,0.0266,0.0246,0.0265,0.027,0.0275,0.0283,0.0263,0.0267,0.0222,0.0222,0.0222,0,0,0.04,0.0401,0.0405,0.0409,0.0403,0.0417,0.0391,0.0392,0.0402,0.0358,0.0362,0.0335,0.0304,0.0299,0.0293,0.0281,0.0278,0.0275,0.028,0.0285,0.0264,0.0269,0.0273,0.0222,0.0222,0.0222,0,0,0.042,0.0417,0.0433,0.0437,0.0437,0.0432,0.0436,0.0427,0.042,0.0418,0.0391,0.0375,0.0347,0.0332,0.0319,0.0338,0.0304,0.0326,0.0365,0.0346,0.035,0.0353,0.034,0.0341,0.0329,0.0329,0.0329,0,0.0426,0.0449,0.0437,0.0457,0.0468,0.0445,0.0469,0.0461,0.0448,0.0449,0.0428,0.0395,0.0365,0.0365,0.0369,0.035,0.0334,0.0348,0.0354,0.0357,0.0359,0.0344,0.0344,0.0332,0.0332,0.0332,0.0331,0,0.0464,0.0481,0.0492,0.0513,0.0521,0.0537,0.0532,0.0532,0.0518,0.051,0.0501,0.046,0.0442,0.0427,0.0403,0.0405,0.0387,0.0363,0.0343,0.0367,0.035,0.0349,0.0337,0.0336,0.0335,0.0334,0,0,0.0484,0.0514,0.0518,0.0542,0.0555,0.0568,0.0583,0.0595,0.0613,0.0582,0.0597,0.0557,0.0531,0.0514,0.0478,0.0458,0.0454,0.0421,0.0418,0.0415,0.0418,0.0439,0.044,0.0431,0.0431,0.0431,0.0402,0,0.0519,0.0571,0.0574,0.0625,0.0655,0.0646,0.0669,0.0673,0.0665,0.0672,0.0623,0.0619,0.0566,0.0557,0.0529,0.0475,0.0455,0.0465,0.0388,0.0386,0.0408,0.0441,0.054,0.0525,0.0401,0.0401,0.0401,0,0.056,0.0592,0.0647,0.0694,0.0706,0.0729,0.0765,0.0783,0.0781,0.0772,0.0752,0.0713,0.0681,0.0626,0.0552,0.056,0.0497,0.0449,0.0446,0.0444,0.0407,0.0478,0.0528,0.052,0.04,0.04,0.04,0,0.0592,0.0645,0.0692,0.0709,0.0755,0.0774,0.0798,0.0813,0.0843,0.0836,0.0851,0.0797,0.0778,0.0692,0.0589,0.057,0.0506,0.0464,0.0425,0.0425,0.0484,0.049,0.0525,0.0412,0.0412,0.0412,0.0412,0,0.0637,0.0675,0.0711,0.0741,0.0805,0.0819,0.0882,0.0892,0.092,0.0973,0.0908,0.093,0.0793,0.0736,0.0626,0.0539,0.0534,0.0446,0.0425,0.051,0.0518,0.049,0.0451,0.0411,0.0412,0.0412,0.0412,0,0.0668,0.0689,0.0751,0.0803,0.0823,0.0871,0.0942,0.0989,0.1006,0.1069,0.107,0.1032,0.097,0.0834,0.0703,0.0605,0.0515,0.0467,0.058,0.0573,0.0528,0.0487,0.0443,0.0506,0.0425,0.0426,0.0426,0,0.069,0.0724,0.0795,0.0837,0.0863,0.0933,0.0986,0.1026,0.1084,0.1144,0.1181,0.1139,0.1143,0.0966,0.0792,0.0627,0.0562,0.0582,0.0559,0.0559,0.0497,0.0442,0.0496,0.066,0.0662,0.0664,0.0666,0,0.0736,0.0755,0.0805,0.0891,0.0952,0.1033,0.111,0.117,0.1233,0.1299,0.1379,0.1389,0.1252,0.1158,0.0925,0.0794,0.063,0.0614,0.0591,0.0674,0.064,0.0682,0.0639,0.0682,0.0681,0.0679,0.0679,0.0678,0.0765,0.0807,0.0869,0.0953,0.1025,0.1122,0.1199,0.1296,0.141,0.1538,0.1546,0.1649,0.1512,0.1231,0.1031,0.0802,0.0745,0.0742,0.0688,0.0629,0.0712,0.0709,0.0738,0.0737,0.0736,0.0735,0.0734,0,0.0808,0.0853,0.0929,0.1027,0.1112,0.1146,0.1276,0.1369,0.1521,0.1697,0.18,0.1932,0.1713,0.1463,0.1128,0.0938,0.0868,0.0829,0.0798,0.0849,0.0842,0.0879,0.097,0.097,0.097,0.097,0.097,0.097,0.0831,0.0905,0.0943,0.1081,0.1153,0.1273,0.1353,0.1503,0.1666,0.1956,0.2166,0.2311,0.228,0.151,0.1112,0.0996,0.0921,0.0832,0.0801,0.0807,0.0795,0.0784,0.0813,0.0889,0.0889,0.09,0.09,0.0899]}],[{"header":{"parameterUnit":"m.s-1","parameterCategory":2,"la1":30.2991,"la2":30.254,"lo1":-89.0895,"lo2":-89.0444,"dy":0.0017,"dx":0.0017,"nx":28,"ny":28,"refTime":"2025-04-05T09:00:00:Z","depth":"2","parameterNumber":2,"parameterNumberName":"U-component_of_CURRENTS"},"data":[0,0,0,0,0,0,0,0,0,0,0,0,0,0,0,0,0,0,0,0,0,0,0,0,0,0,0,0,0,0,0,0,0,0,0,0,0,0,0,0,0,0,0,0,0,0,0,0,0,0,0,0,0,0,0,0,0,0,0.25,0.2501,0,0.2525,0.2525,0.2525,0.2523,0.2523,0.2523,0.2523,0.2536,0.2537,0.2538,0,0,0,0,0,0,0,0,0,0,0,0,0,0.2471,0.2472,0.25,0.2501,0.2501,0.2525,0.2525,0.2525,0.2523,0.2523,0.2523,0.2523,0.2536,0.2537,0.2538,0,0,0,0,0,0,0,0,0,0,0,0,0,0.2487,0.2472,0.25,0.2504,0.2505,0.2525,0.2525,0.2525,0.2524,0.2523,0.2523,0.2523,0.2536,0.2537,0.2538,0.255,0,0,0.254,0.2541,0,0,0,0,0,0,0,0,0.2486,0.2488,0.2503,0.2504,0.2505,0.2522,0.252,0.2533,0.2524,0.2515,0.2523,0.2522,0.2532,0.2533,0.2536,0.255,0.2551,0.254,0.2541,0.2541,0.2541,0,0,0,0,0,0,0,0.2485,0.2487,0.2508,0.2504,0.2505,0.2512,0.2513,0.2522,0.2524,0.2516,0.2516,0.2521,0.2532,0.2536,0.2537,0.2551,0.254,0.2541,0.2542,0.2542,0.2603,0.2604,0,0,0,0,0,0,0.2484,0.2486,0.2508,0.2509,0.2496,0.2512,0.2514,0.2516,0.2524,0.2525,0.2521,0.2521,0.2534,0.2536,0.2537,0.257,0.2541,0.2542,0.2543,0.2602,0.2603,0.2604,0,0,0,0,0,0,0.2484,0.2486,0.2507,0.2499,0.2503,0.2513,0.2515,0.2516,0.2523,0.2528,0.2529,0.2528,0.2534,0.2536,0.2554,0.257,0.2542,0.2543,0.2601,0.2602,0.2604,0.2624,0,0,0,0,0,0,0.2483,0.2485,0.2488,0.2499,0.2503,0.2522,0.2516,0.2517,0.2528,0.2527,0.2534,0.2535,0.2534,0.2553,0.2555,0.2571,0.2544,0.2599,0.2601,0.2603,0.2622,0.2627,0.263,0,0,0,0,0,0.2481,0.2485,0.2487,0.249,0.2505,0.2523,0.2526,0.2531,0.2528,0.2535,0.2542,0.2535,0.2568,0.2555,0.2557,0.2573,0.2598,0.2601,0.2603,0.2621,0.2626,0.263,0,0,0,0,0,0,0.2474,0.2486,0.2488,0.2496,0.2511,0.2523,0.2532,0.2535,0.2546,0.2547,0.2547,0.2549,0.2573,0.2572,0.2558,0.2598,0.2583,0.2586,0.2595,0.26,0.2604,0.2604,0.2545,0,0,0,0,0,0.2474,0.2479,0.2495,0.2501,0.251,0.2522,0.253,0.2535,0.2547,0.2551,0.2556,0.2567,0.2585,0.2591,0.2605,0.2623,0.2633,0.2637,0.2641,0.2644,0.2647,0.2684,0.2692,0.2613,0.2613,0.2612,0,0,0.2472,0.2481,0.2483,0.25,0.2512,0.253,0.2526,0.2542,0.2556,0.2552,0.2571,0.2582,0.2595,0.2619,0.2629,0.2619,0.2672,0.2648,0.265,0.2651,0.2688,0.2695,0.2702,0.2614,0.2614,0.2614,0,0,0.2476,0.2482,0.249,0.2505,0.2526,0.2537,0.2544,0.2561,0.2567,0.259,0.2594,0.2616,0.2635,0.2649,0.2659,0.2694,0.2694,0.2699,0.2714,0.2751,0.2757,0.2763,0.2781,0.2789,0.2697,0.2697,0.2697,0,0.2475,0.2486,0.2496,0.2513,0.2525,0.2542,0.2557,0.2572,0.2593,0.2606,0.26,0.2647,0.2652,0.269,0.2699,0.2703,0.2717,0.2692,0.2755,0.2761,0.2767,0.2784,0.2792,0.2699,0.2698,0.2698,0.2698,0,0.2487,0.2499,0.2508,0.2532,0.2547,0.2564,0.2587,0.2606,0.2617,0.2635,0.2673,0.2686,0.2715,0.2721,0.2718,0.2764,0.2759,0.2758,0.274,0.2776,0.2792,0.28,0.27,0.27,0.27,0.2699,0,0,0.2475,0.2509,0.2511,0.2522,0.2557,0.2568,0.2601,0.2635,0.2658,0.2685,0.2715,0.2748,0.2759,0.2771,0.2775,0.2798,0.2845,0.2793,0.2794,0.2805,0.2917,0.2904,0.2911,0.2857,0.2858,0.286,0.291,0,0.2481,0.2505,0.2523,0.2547,0.2561,0.259,0.2618,0.2652,0.2681,0.2717,0.2747,0.2777,0.2778,0.2787,0.2819,0.2841,0.2868,0.2831,0.2886,0.2887,0.2867,0.2921,0.2645,0.2666,0.2918,0.2919,0.292,0,0.2482,0.2499,0.2517,0.255,0.2559,0.2577,0.262,0.265,0.2712,0.2737,0.2785,0.2807,0.2854,0.2841,0.2913,0.289,0.2908,0.292,0.2923,0.2909,0.2889,0.2673,0.2671,0.2933,0.2932,0.2931,0.293,0,0.2454,0.2491,0.25,0.2513,0.2557,0.257,0.2597,0.2654,0.2683,0.2749,0.278,0.2843,0.2874,0.2916,0.2953,0.2936,0.3024,0.3005,0.3011,0.3009,0.2784,0.2761,0.3058,0.3058,0.3057,0.3057,0.3057,0,0.2445,0.2453,0.2486,0.2492,0.2511,0.2547,0.2577,0.262,0.2682,0.2721,0.2785,0.2826,0.2896,0.2953,0.2975,0.3027,0.3051,0.3027,0.3031,0.2784,0.2762,0.2998,0.2991,0.3059,0.3059,0.3058,0.3058,0,0.2408,0.2431,0.2445,0.2484,0.2495,0.2506,0.2557,0.2581,0.2651,0.2704,0.2725,0.2829,0.2909,0.2972,0.3044,0.3057,0.3098,0.3106,0.2809,0.2779,0.3048,0.3041,0.3117,0.3118,0.3118,0.3118,0.3118,0,0.239,0.2393,0.2425,0.2427,0.2441,0.2466,0.2482,0.2554,0.2582,0.2701,0.2719,0.2826,0.2887,0.3005,0.3003,0.3045,0.3118,0.285,0.2778,0.3063,0.3059,0.3052,0.3045,0.2474,0.2469,0.2465,0.2461,0,0.2359,0.2368,0.2379,0.2384,0.2392,0.2403,0.2433,0.2453,0.2541,0.2591,0.2668,0.2729,0.283,0.2763,0.284,0.2825,0.2823,0.2771,0.3136,0.2525,0.2467,0.246,0.2472,0.2424,0.2427,0.243,0.2432,0.2434,0.2332,0.2327,0.2337,0.2335,0.2339,0.2327,0.2313,0.234,0.2372,0.2402,0.2533,0.2535,0.2582,0.2559,0.2495,0.2448,0.266,0.2557,0.2565,0.2578,0.2518,0.2466,0.2409,0.2413,0.2416,0.2419,0.2421,0,0.2284,0.2291,0.2286,0.227,0.2227,0.2265,0.2265,0.2209,0.2192,0.2243,0.2272,0.2116,0.2085,0.2134,0.1997,0.2037,0.1945,0.1969,0.1816,0.1857,0.1893,0.1792,0.1494,0.1491,0.1488,0.1485,0,0,0.2263,0.2236,0.2227,0.2152,0.2142,0.2052,0.2032,0.1966,0.1953,0.1887,0.1862,0.1984,0.2088,0.1762,0.1728,0.1592,0.1699,0.1517,0.2265,0.2127,0.2158,0.2246,0.2142,0,0,0,0,0]},{"header":{"parameterUnit":"m.s-1","parameterCategory":2,"la1":30.2991,"la2":30.254,"lo1":-89.0895,"lo2":-89.0444,"dy":0.0017,"dx":0.0017,"nx":28,"ny":28,"refTime":"2025-04-05T09:00:00:Z","depth":"2","parameterNumber":3,"parameterNumberName":"V-component_of_CURRENTS"},"data":[0,0,0,0,0,0,0,0,0,0,0,0,0,0,0,0,0,0,0,0,0,0,0,0,0,0,0,0,0,0,0,0,0,0,0,0,0,0,0,0,0,0,0,0,0,0,0,0,0,0,0,0,0,0,0,0,0,0,0.0329,0.0329,0,0.0301,0.03,0.03,0.0274,0.0273,0.0273,0.0273,0.0213,0.0211,0.021,0,0,0,0,0,0,0,0,0,0,0,0,0,0.0321,0.0322,0.0329,0.0329,0.0329,0.0301,0.03,0.03,0.0274,0.0273,0.0273,0.0273,0.0213,0.0211,0.021,0,0,0,0,0,0,0,0,0,0,0,0,0,0.031,0.0322,0.0329,0.0314,0.0312,0.0301,0.03,0.0299,0.0274,0.0273,0.0273,0.0273,0.0214,0.0211,0.0209,0.0201,0,0,0.0203,0.0202,0,0,0,0,0,0,0,0,0.0311,0.0311,0.0316,0.0315,0.0313,0.0292,0.0275,0.0265,0.0274,0.0286,0.0273,0.0273,0.0237,0.0233,0.0226,0.0198,0.0195,0.0202,0.0201,0.02,0.02,0,0,0,0,0,0,0,0.0312,0.0311,0.0316,0.0316,0.0314,0.0295,0.0293,0.0273,0.0262,0.0285,0.0284,0.0283,0.0236,0.0229,0.0225,0.0194,0.0202,0.0201,0.0199,0.0198,0.0162,0.0162,0,0,0,0,0,0,0.0321,0.0312,0.0317,0.0315,0.0313,0.0295,0.0293,0.0297,0.0263,0.0258,0.0284,0.0282,0.0233,0.0227,0.0223,0.0228,0.02,0.0198,0.0197,0.0162,0.0162,0.0162,0,0,0,0,0,0,0.0321,0.0322,0.0318,0.0314,0.0313,0.0296,0.0301,0.0297,0.0293,0.0262,0.0256,0.0284,0.0232,0.0226,0.0215,0.0225,0.0197,0.0195,0.0161,0.0162,0.0162,0.0228,0,0,0,0,0,0,0.0321,0.0322,0.0327,0.0315,0.0313,0.032,0.0301,0.0297,0.0294,0.0292,0.026,0.0254,0.0231,0.0218,0.0212,0.0221,0.0193,0.0161,0.0162,0.0162,0.0225,0.0231,0.0235,0,0,0,0,0,0.0321,0.0332,0.0327,0.0327,0.032,0.0321,0.0319,0.0304,0.0294,0.0298,0.0278,0.0255,0.0218,0.0217,0.021,0.0219,0.0161,0.0161,0.0162,0.0223,0.023,0.0235,0,0,0,0,0,0,0.0331,0.0331,0.0324,0.0335,0.0332,0.0318,0.0319,0.0309,0.0296,0.0292,0.0262,0.0255,0.0248,0.0224,0.0223,0.0209,0.0184,0.0184,0.0233,0.0239,0.0244,0.0259,0.0192,0,0,0,0,0,0.0336,0.0343,0.0339,0.0347,0.0348,0.0334,0.0331,0.0323,0.0311,0.0305,0.0285,0.0261,0.0245,0.0236,0.0215,0.0209,0.0189,0.0209,0.0214,0.0218,0.0226,0.0206,0.021,0.0165,0.0165,0.0165,0,0,0.0341,0.0342,0.0346,0.0349,0.0344,0.0358,0.0332,0.0334,0.0343,0.03,0.0304,0.0277,0.0247,0.0242,0.0236,0.0224,0.0221,0.0219,0.0223,0.0228,0.0207,0.0211,0.0215,0.0166,0.0165,0.0165,0,0,0.0361,0.0358,0.0374,0.0378,0.0378,0.0373,0.0377,0.0368,0.0362,0.0361,0.0333,0.0318,0.0291,0.0275,0.0263,0.0282,0.0248,0.0271,0.0309,0.029,0.0294,0.0297,0.0282,0.0284,0.0274,0.0274,0.0274,0,0.0367,0.0389,0.0377,0.0397,0.0408,0.0386,0.041,0.0402,0.039,0.0391,0.037,0.0338,0.0309,0.0308,0.0313,0.0294,0.0278,0.0292,0.0298,0.03,0.0302,0.0286,0.0287,0.0277,0.0277,0.0276,0.0276,0,0.0404,0.0421,0.0432,0.0453,0.046,0.0477,0.0472,0.0472,0.0459,0.0451,0.0443,0.0402,0.0385,0.037,0.0346,0.0348,0.0331,0.0307,0.0286,0.0311,0.0292,0.0292,0.0282,0.0281,0.028,0.0279,0,0,0.0424,0.0453,0.0458,0.0481,0.0494,0.0508,0.0523,0.0535,0.0553,0.0522,0.0537,0.0498,0.0472,0.0456,0.042,0.04,0.0396,0.0364,0.0361,0.0357,0.0358,0.0379,0.038,0.0373,0.0373,0.0374,0.0343,0,0.0459,0.0509,0.0512,0.0563,0.0593,0.0584,0.0607,0.0611,0.0603,0.061,0.0562,0.0559,0.0507,0.0498,0.0471,0.0417,0.0397,0.0407,0.0329,0.0327,0.0348,0.0381,0.0336,0.0308,0.0342,0.0342,0.0341,0,0.0499,0.053,0.0585,0.0631,0.0643,0.0666,0.0701,0.072,0.0717,0.0709,0.0689,0.065,0.0619,0.0566,0.0491,0.05,0.0438,0.0389,0.0386,0.0383,0.0347,0.0286,0.0305,0.034,0.034,0.034,0.034,0,0.0531,0.0583,0.063,0.0647,0.0691,0.0711,0.0735,0.075,0.0779,0.0772,0.0786,0.0733,0.0714,0.0629,0.0527,0.0509,0.0443,0.0402,0.0362,0.0362,0.0299,0.0294,0.035,0.035,0.035,0.035,0.035,0,0.0575,0.0613,0.0649,0.0679,0.0742,0.0756,0.0818,0.0828,0.0855,0.0907,0.0842,0.0863,0.0728,0.0671,0.0562,0.0475,0.047,0.0382,0.0362,0.0322,0.032,0.0322,0.0319,0.0349,0.0349,0.0349,0.0349,0,0.0607,0.0628,0.0689,0.074,0.076,0.0808,0.0877,0.0924,0.094,0.1002,0.1003,0.0963,0.0901,0.0767,0.0636,0.0539,0.0437,0.0401,0.0371,0.0348,0.0357,0.0358,0.0357,0.0358,0.0358,0.0358,0.0359,0,0.0629,0.0663,0.0733,0.0775,0.0801,0.087,0.0922,0.0961,0.1018,0.1074,0.111,0.1068,0.1063,0.0885,0.0682,0.0508,0.048,0.0364,0.0323,0.0381,0.036,0.036,0.036,0.0256,0.0255,0.0255,0.0254,0,0.0674,0.0694,0.0743,0.0829,0.0889,0.0968,0.1044,0.1102,0.1163,0.122,0.1296,0.1298,0.1131,0.0941,0.0697,0.0561,0.0389,0.0354,0.0413,0.0278,0.0287,0.0267,0.0269,0.0251,0.0251,0.0251,0.0251,0.0252,0.0704,0.0745,0.0806,0.089,0.0961,0.1056,0.1131,0.1197,0.1298,0.136,0.1398,0.1381,0.1178,0.0848,0.0623,0.037,0.0411,0.0295,0.0295,0.0295,0.0306,0.0318,0.0289,0.0289,0.029,0.029,0.029,0,0.0736,0.0791,0.0866,0.0963,0.103,0.1081,0.1207,0.1242,0.1342,0.1404,0.1449,0.1233,0.1048,0.0817,0.0447,0.0261,0.0199,0.018,0.0136,0.0142,0.0147,0.0148,0.0089,0.0088,0.0087,0.0086,0,0,0.0755,0.0823,0.0861,0.0985,0.1068,0.1148,0.1225,0.127,0.1313,0.1334,0.1334,0.1333,0.111,0.0793,0.0516,0.0306,0.0259,0.0244,0.0425,0.0411,0.0417,0.0233,0.0245,0,0,0,0,0]}],[{"header":{"parameterUnit":"m.s-1","parameterCategory":2,"la1":30.2991,"la2":30.254,"lo1":-89.0895,"lo2":-89.0444,"dy":0.0017,"dx":0.0017,"nx":28,"ny":28,"refTime":"2025-04-05T09:00:00:Z","depth":"4","parameterNumber":2,"parameterNumberName":"U-component_of_CURRENTS"},"data":[0,0,0,0,0,0,0,0,0,0,0,0,0,0,0,0,0,0,0,0,0,0,0,0,0,0,0,0,0,0,0,0,0,0,0,0,0,0,0,0,0,0,0,0,0,0,0,0,0,0,0,0,0,0,0,0,0,0,0.1571,0.1572,0,0.1617,0.1617,0.1618,0.1667,0.1668,0.1669,0.167,0.1753,0.1754,0.1756,0,0,0,0,0,0,0,0,0,0,0,0,0,0.1531,0.1531,0.1571,0.1572,0.1572,0.1617,0.1617,0.1618,0.1667,0.1668,0.1669,0.167,0.1752,0.1754,0.1756,0,0,0,0,0,0,0,0,0,0,0,0,0,0.1559,0.1531,0.1571,0.1603,0.1606,0.1616,0.1617,0.1618,0.1667,0.1668,0.1669,0.1671,0.1752,0.1754,0.1756,0.1746,0,0,0.1763,0.1764,0,0,0,0,0,0,0,0,0.1557,0.156,0.1598,0.1601,0.1604,0.1638,0.1633,0.1663,0.1667,0.1643,0.167,0.1671,0.1717,0.1722,0.1727,0.175,0.1754,0.1763,0.1764,0.1765,0.1766,0,0,0,0,0,0,0,0.1555,0.1558,0.1589,0.1598,0.1602,0.1616,0.1621,0.1639,0.1673,0.1645,0.1649,0.1655,0.172,0.1725,0.1729,0.1755,0.1763,0.1765,0.1766,0.1767,0.1885,0.1887,0,0,0,0,0,0,0.1549,0.1556,0.1587,0.159,0.1584,0.1616,0.1622,0.1626,0.1673,0.1681,0.1654,0.1657,0.172,0.1727,0.1733,0.1819,0.1765,0.1767,0.1769,0.1883,0.1886,0.1887,0,0,0,0,0,0,0.1548,0.1551,0.1585,0.1575,0.158,0.1615,0.1619,0.1626,0.1664,0.1679,0.1688,0.1689,0.1722,0.173,0.1781,0.1819,0.1768,0.177,0.1881,0.1884,0.1887,0.1931,0,0,0,0,0,0,0.1547,0.155,0.1568,0.1574,0.1581,0.1613,0.1619,0.1626,0.1664,0.1669,0.1711,0.1718,0.1723,0.1778,0.1783,0.1821,0.1772,0.1879,0.1882,0.1886,0.1927,0.1935,0.1941,0,0,0,0,0,0.1545,0.1558,0.1569,0.1574,0.1598,0.1614,0.1619,0.1647,0.1665,0.1685,0.1719,0.1719,0.1804,0.1781,0.1787,0.1826,0.1877,0.1881,0.1885,0.1924,0.1933,0.1941,0,0,0,0,0,0,0.1552,0.1564,0.1576,0.1595,0.1614,0.1623,0.1648,0.1664,0.1704,0.1722,0.1736,0.1746,0.1807,0.181,0.1785,0.1872,0.1843,0.1848,0.187,0.1879,0.1886,0.1879,0.1774,0,0,0,0,0,0.156,0.1576,0.1587,0.1607,0.1618,0.1639,0.1656,0.1675,0.1702,0.1722,0.1751,0.1787,0.1821,0.1846,0.1873,0.1915,0.1917,0.1947,0.1954,0.196,0.1961,0.2003,0.2013,0.1901,0.1901,0.1901,0,0,0.1569,0.1579,0.159,0.1611,0.163,0.1649,0.1654,0.1688,0.1715,0.1724,0.1785,0.1814,0.1839,0.1891,0.1919,0.1903,0.1994,0.1965,0.197,0.1967,0.2008,0.2019,0.2029,0.1904,0.1903,0.1903,0,0,0.1581,0.1605,0.1618,0.1637,0.1668,0.1679,0.1696,0.1725,0.1756,0.1807,0.1826,0.1877,0.1927,0.1952,0.1969,0.2031,0.203,0.2049,0.2081,0.2122,0.2131,0.214,0.2152,0.216,0.2053,0.2053,0.2053,0,0.1597,0.1609,0.1627,0.1644,0.1665,0.1696,0.1717,0.1747,0.1795,0.1826,0.1838,0.1933,0.1954,0.2014,0.2039,0.2047,0.2061,0.2044,0.213,0.2138,0.2146,0.2156,0.2166,0.2056,0.2055,0.2055,0.2055,0,0.1606,0.1631,0.1644,0.1674,0.17,0.1726,0.1761,0.1806,0.1849,0.1881,0.1963,0.1997,0.2053,0.2073,0.2075,0.2146,0.2136,0.2133,0.2104,0.216,0.2167,0.2176,0.2059,0.2058,0.2058,0.2057,0,0,0.1595,0.1641,0.1649,0.1669,0.1719,0.1737,0.1795,0.1847,0.1894,0.1959,0.2019,0.2088,0.212,0.2141,0.216,0.2194,0.2258,0.2191,0.2192,0.2194,0.2338,0.2187,0.2181,0.2277,0.2279,0.228,0.2319,0,0.16,0.163,0.1656,0.1701,0.1718,0.1771,0.1819,0.188,0.1938,0.2005,0.2065,0.2131,0.2142,0.2179,0.222,0.2252,0.2285,0.2246,0.2291,0.2292,0.2144,0.2188,0.2287,0.2326,0.2328,0.2329,0.233,0,0.159,0.1614,0.1651,0.1712,0.1728,0.1768,0.1852,0.19,0.1998,0.2049,0.2129,0.2174,0.2251,0.2244,0.2333,0.2313,0.2333,0.2347,0.2349,0.2196,0.2156,0.2261,0.2346,0.2344,0.2343,0.2342,0.2341,0,0.1551,0.1608,0.1639,0.166,0.1735,0.1778,0.183,0.1922,0.1973,0.2082,0.2133,0.2227,0.2285,0.2335,0.2377,0.2368,0.2452,0.244,0.2319,0.2308,0.2413,0.2404,0.2497,0.2497,0.2497,0.2497,0.2497,0,0.1521,0.1552,0.1631,0.1647,0.1702,0.1766,0.1838,0.1905,0.2003,0.2061,0.2159,0.2208,0.2317,0.2374,0.2396,0.2378,0.2475,0.2324,0.2311,0.243,0.2422,0.2418,0.2409,0.2498,0.2498,0.2498,0.2497,0,0.1465,0.1516,0.1559,0.1648,0.1682,0.1724,0.1834,0.1879,0.1987,0.2062,0.2102,0.2222,0.229,0.2364,0.2439,0.2387,0.239,0.236,0.2474,0.2468,0.2212,0.2205,0.2219,0.2214,0.221,0.2206,0.2203,0,0.1433,0.145,0.1548,0.1577,0.1622,0.1698,0.1745,0.186,0.1902,0.2048,0.2067,0.2179,0.2243,0.222,0.2313,0.2333,0.2315,0.2293,0.2253,0.2199,0.2186,0.2186,0.2184,0.2197,0.2196,0.2195,0.2193,0,0.1375,0.1425,0.1461,0.1519,0.1573,0.162,0.1697,0.1714,0.1839,0.1956,0.1978,0.2009,0.2077,0.2123,0.2154,0.2169,0.2291,0.2249,0.2257,0.222,0.2172,0.2164,0.2167,0.2179,0.2181,0.2182,0.2183,0,0.1339,0.1349,0.1405,0.1443,0.1507,0.1518,0.1569,0.1608,0.1662,0.1813,0.1818,0.1934,0.2048,0.2039,0.2069,0.2067,0.2041,0.1972,0.1995,0.2012,0.1928,0.1836,0.1728,0,0,0,0,0,0.1293,0.1291,0.1322,0.1351,0.1409,0.1444,0.1524,0.1575,0.1694,0.166,0.173,0.1778,0.1813,0.1878,0.1837,0.1996,0.2061,0.194,0.1995,0.2098,0.2115,0.2036,0,0,0,0,0,0,0.126,0.1288,0.1288,0.1267,0.1272,0.1317,0.1361,0.1438,0.1422,0.1549,0.1577,0.1675,0.1741,0.1822,0.1806,0.1827,0.1824,0.2019,0.2014,0.2089,0.2104,0.2117,0.2042,0,0,0,0,0]},{"header":{"parameterUnit":"m.s-1","parameterCategory":2,"la1":30.2991,"la2":30.254,"lo1":-89.0895,"lo2":-89.0444,"dy":0.0017,"dx":0.0017,"nx":28,"ny":28,"refTime":"2025-04-05T09:00:00:Z","depth":"4","parameterNumber":3,"parameterNumberName":"V-component_of_CURRENTS"},"data":[0,0,0,0,0,0,0,0,0,0,0,0,0,0,0,0,0,0,0,0,0,0,0,0,0,0,0,0,0,0,0,0,0,0,0,0,0,0,0,0,0,0,0,0,0,0,0,0,0,0,0,0,0,0,0,0,0,0,0.0068,0.0067,0,0.0056,0.0055,0.0055,0.0034,0.0033,0.0033,0.0033,-0.0009,-0.001,-0.0011,0,0,0,0,0,0,0,0,0,0,0,0,0,0.0061,0.0061,0.0068,0.0067,0.0067,0.0056,0.0055,0.0055,0.0034,0.0033,0.0033,0.0032,-0.0009,-0.001,-0.0011,0,0,0,0,0,0,0,0,0,0,0,0,0,0.0057,0.0061,0.0068,0.0056,0.0055,0.0056,0.0055,0.0055,0.0034,0.0033,0.0033,0.0032,-0.0009,-0.001,-0.0011,-0.0008,0,0,-0.0015,-0.0015,0,0,0,0,0,0,0,0,0.0057,0.0057,0.0058,0.0057,0.0055,0.0046,0.0038,0.0033,0.0034,0.0041,0.0033,0.0032,0.0008,0.0005,0.0003,-0.001,-0.0012,-0.0015,-0.0015,-0.0016,-0.0016,0,0,0,0,0,0,0,0.0057,0.0057,0.0062,0.0058,0.0056,0.0047,0.0046,0.0037,0.0026,0.004,0.0039,0.0039,0.0006,0.0004,0.0002,-0.0013,-0.0015,-0.0016,-0.0016,-0.0017,-0.0016,-0.0015,0,0,0,0,0,0,0.0062,0.0058,0.0062,0.0062,0.0056,0.0048,0.0047,0.0049,0.0027,0.0023,0.0039,0.0038,0.0007,0.0003,0.0,0.0019,-0.0016,-0.0017,-0.0018,-0.0017,-0.0016,-0.0015,0,0,0,0,0,0,0.0062,0.0063,0.0063,0.006,0.0059,0.0049,0.0051,0.0049,0.0048,0.0027,0.0022,0.0041,0.0006,0.0002,0.0001,0.0016,-0.0018,-0.0019,-0.0018,-0.0016,-0.0015,0.0044,0,0,0,0,0,0,0.0062,0.0063,0.0066,0.006,0.006,0.007,0.0052,0.0049,0.0049,0.0047,0.0026,0.0022,0.0005,0.0003,-0.0,0.0014,-0.002,-0.0019,-0.0017,-0.0016,0.0041,0.0047,0.0052,0,0,0,0,0,0.0062,0.007,0.0067,0.0067,0.0065,0.007,0.007,0.0059,0.005,0.0055,0.0044,0.0023,0.0009,0.0003,-0.0001,0.0013,-0.0019,-0.0018,-0.0016,0.0039,0.0046,0.0052,0,0,0,0,0,0,0.0068,0.0069,0.0065,0.0073,0.0074,0.0067,0.0071,0.0064,0.0059,0.0056,0.0033,0.0029,0.0032,0.0015,0.0009,0.0017,-0.0009,-0.0008,0.0034,0.0041,0.0046,0.0051,-0.0021,0,0,0,0,0,0.0072,0.0079,0.0078,0.0085,0.0087,0.008,0.0081,0.0076,0.007,0.0067,0.0056,0.0043,0.0037,0.0033,0.0023,0.0029,0.0006,0.0035,0.0041,0.0045,0.0047,0.0027,0.0031,-0.001,-0.001,-0.001,0,0,0.0076,0.0078,0.0081,0.0087,0.0086,0.0101,0.0079,0.0085,0.0097,0.0064,0.0076,0.0061,0.0042,0.005,0.005,0.0038,0.0046,0.0047,0.0052,0.0051,0.0029,0.0033,0.0037,-0.0008,-0.0009,-0.0009,0,0,0.0091,0.0091,0.0103,0.011,0.0115,0.0116,0.012,0.0119,0.0118,0.0129,0.0108,0.0103,0.0096,0.0087,0.0081,0.011,0.0075,0.0107,0.014,0.0122,0.0125,0.0127,0.0108,0.0108,0.0111,0.0111,0.0111,0,0.0095,0.0113,0.0107,0.0125,0.0136,0.0126,0.0147,0.0149,0.0149,0.0153,0.014,0.0132,0.0114,0.0122,0.0133,0.0123,0.0105,0.0118,0.0129,0.0131,0.0132,0.0111,0.0111,0.0114,0.0114,0.0114,0.0113,0,0.0122,0.0138,0.0148,0.0169,0.0181,0.0198,0.0203,0.0213,0.021,0.021,0.0216,0.0193,0.0188,0.0183,0.0167,0.0173,0.0155,0.0137,0.0113,0.014,0.0116,0.0114,0.0119,0.0118,0.0117,0.0116,0,0,0.0127,0.016,0.0165,0.0187,0.0207,0.0222,0.0246,0.0265,0.0285,0.0276,0.0293,0.0279,0.0262,0.0253,0.0231,0.0215,0.0209,0.0185,0.0183,0.0167,0.0168,0.0155,0.0151,0.0194,0.0194,0.0194,0.0149,0,0.0151,0.0193,0.0204,0.0251,0.0276,0.0283,0.0311,0.0326,0.0331,0.0346,0.0319,0.0326,0.0292,0.0291,0.027,0.0226,0.0207,0.0223,0.0143,0.0141,0.0126,0.0149,0.0194,0.0148,0.0147,0.0147,0.0147,0,0.0175,0.0203,0.025,0.0299,0.0312,0.034,0.0383,0.0408,0.0421,0.0423,0.0418,0.0395,0.0377,0.0339,0.0276,0.0289,0.0234,0.0193,0.019,0.0154,0.0124,0.0113,0.0143,0.0143,0.0143,0.0144,0.0144,0,0.0185,0.0237,0.0278,0.0295,0.0347,0.0373,0.0403,0.0431,0.0462,0.0473,0.0488,0.0455,0.0446,0.0376,0.0293,0.0286,0.0215,0.0192,0.0126,0.0124,0.0122,0.012,0.0141,0.0141,0.0141,0.0141,0.0141,0,0.0208,0.0243,0.0289,0.0314,0.0373,0.04,0.0461,0.0483,0.0519,0.056,0.0531,0.0542,0.0455,0.0403,0.0314,0.0221,0.023,0.0136,0.0115,0.0149,0.015,0.0121,0.0119,0.0139,0.014,0.014,0.014,0,0.0216,0.0243,0.0296,0.0356,0.0381,0.0425,0.0504,0.0546,0.0577,0.0626,0.0632,0.061,0.0548,0.0452,0.034,0.0258,0.0161,0.012,0.0171,0.0153,0.0075,0.0077,0.0047,0.0046,0.0045,0.0045,0.0044,0,0.0224,0.0251,0.0324,0.0362,0.0394,0.0463,0.0514,0.0568,0.0613,0.0665,0.0685,0.0651,0.0618,0.0459,0.0348,0.0186,0.0153,0.0095,0.0078,0.0085,0.0067,0.007,0.0073,0.0043,0.0043,0.0043,0.0043,0,0.024,0.0264,0.0308,0.0382,0.0442,0.0512,0.0586,0.0622,0.0686,0.0715,0.0728,0.0657,0.0589,0.0462,0.0342,0.0219,0.013,0.0088,0.0088,0.0071,0.008,0.0064,0.0067,0.0041,0.0041,0.0041,0.0041,0,0.0251,0.0278,0.0332,0.04,0.0472,0.0538,0.0582,0.064,0.0688,0.0742,0.0742,0.0677,0.0646,0.0479,0.0365,0.0251,0.0209,0.0149,0.0145,0.0146,0.0183,0.021,0.0197,0,0,0,0,0,0.0259,0.0287,0.0347,0.0419,0.0489,0.0532,0.062,0.0659,0.0719,0.0731,0.0741,0.0678,0.0532,0.0474,0.0357,0.0332,0.0176,0.0186,0.0101,0.0028,0.003,0.0054,0,0,0,0,0,0,0.0262,0.0312,0.034,0.0419,0.0468,0.0549,0.0603,0.0649,0.0659,0.0702,0.0631,0.0621,0.0481,0.0596,0.0345,0.0314,0.0236,0.013,0.0126,0.0026,0.0029,0.0031,0.0056,0,0,0,0,0]}]]